RH
26 28 31 33 41 38 40 44 46 42 45 45 43 36 33 44 50 55 51 51 51 56 50 44 32 23 22 26 44 38 35 28
20 20 24 28 28 38 40 43 42 44 46 48 50 58 54 54 62 61 58 54 44 52 52 41 37 29 22 24 45 62 56 74
32 26 23 24 25 30 39 44 44 41 48 49 50 58 67 61 55 51 46 46 48 51 55 50 43 35 25 23 47 72 73 71
26 28 27 24 24 26 33 42 50 48 49 52 50 49 49 55 53 59 63 67 68 55 54 48 46 39 34 30 31 37 56 67
27 27 28 23 22 24 29 41 51 54 52 50 49 54 60 61 66 69 69 67 62 63 55 43 48 50 39 38 36 38 38 45
30 27 26 24 24 24 23 34 43 53 59 55 52 51 55 60 59 59 62 64 65 65 63 60 46 56 46 40 42 48 48 50
30 30 28 27 28 34 37 26 32 40 49 55 54 53 52 54 55 62 65 67 67 69 68 62 66 56 58 52 48 43 46 48
26 30 33 46 44 42 40 38 28 34 39 44 48 52 49 51 55 59 70 67 64 64 94 81 74 69 57 58 59 49 48 58
24 23 29 34 36 41 38 38 38 35 36 35 39 49 47 48 49 58 64 72 69 69 87 90 76 71 64 56 62 60 63 79
24 22 26 39 39 38 40 38 43 38 39 34 37 47 46 45 52 56 61 65 73 71 74 84 92 83 73 65 63 73 70 73
24 26 24 27 33 35 39 40 41 45 41 35 39 38 50 49 50 53 55 62 67 75 80 81 91 95 82 66 67 79 77 84
26 28 28 30 32 32 38 35 41 42 38 34 34 44 48 48 51 57 59 57 62 68 78 85 88 94 88 73 69 70 80 97
37 37 45 56 55 46 40 35 41 39 39 37 42 52 47 44 44 43 53 62 81 78 75 79 94 94 96 93 70 63 96 95
52 53 66 69 64 56 46 40 44 45 43 37 41 46 43 41 43 47 55 73 82 96 94 88 94 96 97 96 89 75 96 97
54 52 72 61 65 71 56 52 51 44 41 38 40 56 52 47 48 54 60 61 80 95 97 96 96 97 96 96 98 96 96 96
66 74 66 59 59 65 61 54 47 43 40 30 36 51 52 50 50 52 67 63 81 93 89 96 95 95 96 96 96 96 97 96
74 69 67 56 56 50 47 51 56 62 75 61 58 55 59 61 69 60 56 71 77 93 96 95 95 96 96 96 97 94 96 96
60 63 65 61 54 47 46 55 49 45 51 50 43 40 49 58 62 63 61 68 76 96 90 96 97 94 97 95 96 96 96 96
72 57 57 52 48 49 50 52 40 37 48 46 46 48 49 53 56 54 56 66 75 93 86 95 93 97 95 96 96 96 97 97
Wind_Speed
31 31 28 22 20 18 17 20 21 24 21 21 19 16 17 21 22 25 24 23 22 22 22 21 20 18 18 17 15 15 17 17
35 35 34 30 22 21 19 20 17 25 22 17 17 16 18 20 21 25 27 25 25 23 25 24 21 21 20 20 18 17 16 15
42 39 40 37 27 20 19 19 21 21 23 20 18 21 23 24 25 25 26 24 22 23 25 25 24 23 20 22 17 17 17 19
47 44 45 42 37 21 19 19 23 25 23 27 26 24 23 23 20 21 26 28 27 26 25 25 25 24 23 21 20 19 21 21
48 45 46 46 40 31 24 21 24 26 29 29 28 26 24 23 23 26 29 31 30 29 28 25 26 25 26 24 22 21 22 23
51 49 47 45 41 38 28 27 25 29 29 30 31 30 28 29 29 28 28 31 29 29 29 27 26 26 28 27 26 24 23 24
52 50 47 46 45 42 34 33 30 32 31 31 32 33 33 34 32 30 30 31 31 31 30 29 26 28 28 29 29 27 27 26
54 52 52 50 49 52 42 38 36 34 35 34 32 36 39 38 36 34 34 35 34 31 34 33 29 30 31 31 31 29 29 27
56 51 49 52 53 50 52 45 38 37 37 36 33 32 39 40 38 37 36 36 36 35 36 37 34 33 33 32 30 29 29 29
55 50 48 43 45 45 53 48 43 40 35 37 37 34 36 38 38 38 38 37 39 40 37 42 37 35 36 33 31 30 29 29
62 60 56 55 52 48 45 47 49 43 34 37 40 38 39 41 43 42 41 39 40 42 41 42 43 39 39 34 33 33 29 27
65 63 56 53 56 53 49 48 53 52 45 43 47 39 39 43 43 41 45 44 43 42 45 44 43 44 43 36 34 37 32 29
60 55 50 44 45 50 49 46 49 45 35 33 42 40 41 43 43 43 43 47 46 43 46 48 48 49 47 39 38 39 36 33
58 57 50 46 49 50 48 46 40 37 38 38 44 43 41 45 44 44 43 42 47 48 45 48 48 47 49 46 41 45 40 36
64 62 59 57 54 53 51 45 44 46 47 47 49 49 49 45 43 43 44 41 47 46 46 48 49 48 45 51 52 48 43 36
61 64 64 61 57 53 51 50 50 50 51 51 56 54 51 49 42 44 44 38 40 42 45 47 50 45 43 46 52 43 42 37
60 63 63 64 56 52 52 52 52 52 53 54 54 51 51 46 45 43 42 40 43 50 48 47 44 38 38 41 41 42 38 38
55 59 62 63 60 56 56 55 56 55 54 51 49 50 50 44 43 44 42 39 41 34 31 35 35 33 33 32 34 36 38 36
64 69 66 65 60 59 58 62 58 55 53 48 45 46 45 45 46 45 44 39 35 28 28 27 29 35 34 35 34 34 38 35
Wind_Direction
238 244 247 237 234 245 257 262 257 261 252 254 251 250 249 236 236 248 249 251 246 253 263 263 266 266 266 265 271 266 269 272
244 244 246 246 235 242 256 258 257 255 258 245 251 258 248 242 241 247 253 251 255 255 260 265 261 261 262 259 263 271 267 278
252 252 255 253 239 233 242 257 254 256 256 256 236 243 245 239 242 248 261 268 264 261 259 260 263 264 264 266 265 268 271 285
241 246 255 259 257 237 246 251 246 252 251 252 253 248 248 253 258 262 265 264 263 258 258 254 254 262 266 267 263 269 273 279
238 243 249 254 258 255 243 243 238 248 250 254 257 258 253 250 243 246 252 256 258 260 260 257 254 256 264 267 266 267 275 280
236 244 247 250 254 253 244 240 238 243 248 253 258 259 258 252 253 251 255 263 266 266 264 260 254 252 257 264 267 269 273 275
239 242 244 250 253 252 248 243 242 243 241 247 255 262 259 257 256 256 255 259 265 269 271 272 262 257 259 262 266 268 268 273
241 243 249 257 261 260 262 247 246 246 243 239 245 253 260 258 256 253 250 254 260 266 266 267 264 259 259 262 266 267 272 276
244 245 249 258 264 257 260 258 249 244 239 245 249 246 254 260 259 255 252 250 252 256 262 261 262 264 263 264 263 267 273 273
246 246 247 253 256 260 260 261 257 253 241 242 246 248 247 254 259 259 255 253 248 249 257 265 261 261 264 265 264 266 270 274
246 246 246 246 251 255 264 260 257 259 247 242 245 250 246 247 252 258 260 257 251 248 251 259 265 258 259 263 265 264 266 272
249 250 249 253 254 251 251 249 250 253 257 245 248 248 246 251 251 254 261 258 257 250 247 250 254 255 255 257 261 262 263 259
248 248 252 241 235 239 244 247 251 251 245 239 239 244 246 254 262 260 260 259 256 254 252 248 251 255 249 251 256 259 255 258
235 235 235 240 231 235 237 238 244 243 245 240 247 254 255 256 263 261 254 258 254 254 248 249 250 254 253 251 247 251 251 250
236 232 230 232 227 228 231 233 234 241 245 246 252 257 259 259 259 256 253 256 257 261 251 249 251 250 251 248 250 253 251 249
233 226 228 228 227 229 234 237 239 247 253 250 249 252 252 253 255 252 254 250 249 249 249 247 251 254 259 253 252 253 245 251
238 229 215 223 227 231 234 236 243 248 250 251 252 252 247 248 253 251 252 254 259 255 248 244 254 259 253 251 251 248 248 253
223 216 218 225 223 224 229 231 238 242 245 244 244 243 247 249 249 247 248 257 262 261 250 255 254 262 258 254 258 251 249 255
225 222 220 223 227 225 227 229 231 236 239 237 236 239 245 245 246 245 248 255 260 258 255 259 264 263 264 265 269 261 258 260